DW5852 Weather Reports


Display with metric or nautical units.
time (UTC)temp
F
wind
direction
speed
MPH
gust
MPH
rain 1hr
in
rain 24hr
in
rain mn
in
humidity
%
barometer
mb
20260904151733 69 90 0.0 0.0 0.00 0.09 0.00 53 1034.1
20260904151233 69 82 0.0 0.0 0.00 0.09 0.00 54 1034.1
20260904150733 70 50 0.0 0.0 0.00 0.09 0.00 52 1034.1
20260904150233 71 70 0.0 0.0 0.00 0.09 0.00 52 1034.1
20260904145736 70 145 0.0 0.0 0.00 0.09 0.00 53 1034.1
20260904145236 68 99 0.0 0.0 0.00 0.09 0.00 56 1034.0
20260904144733 67 98 0.0 0.0 0.00 0.09 0.00 56 1034.0
20260904144233 67 65 0.0 0.0 0.00 0.09 0.00 57 1033.9
20260904143733 67 73 0.0 0.0 0.00 0.09 0.00 57 1033.9
20260904143236 67 61 0.0 0.0 0.00 0.09 0.00 58 1033.9
20260904142733 66 38 0.0 0.0 0.00 0.09 0.00 59 1033.8
20260904142233 66 38 0.0 0.0 0.00 0.09 0.00 61 1033.7
20260904141736 66 64 0.0 0.0 0.00 0.09 0.00 59 1033.6
20260904141233 67 55 0.0 0.0 0.00 0.09 0.00 58 1033.5
20260904140733 66 53 0.0 0.0 0.00 0.09 0.00 57 1033.4
20260904140236 66 53 0.0 0.0 0.00 0.09 0.00 57 1033.3
20260904135733 65 68 0.0 0.0 0.00 0.09 0.00 58 1033.4
20260904135233 65 104 0.0 0.0 0.00 0.09 0.00 60 1033.2
20260904134736 63 300 0.0 0.0 0.00 0.09 0.00 61 1033.1
20260904134233 63 225 0.0 0.0 0.00 0.09 0.00 62 1033.1
20260904133736 63 226 0.0 0.0 0.00 0.09 0.00 62 1033.1
20260904133233 63 226 0.0 0.0 0.00 0.09 0.00 62 1033.0
20260904132733 63 224 0.0 0.0 0.00 0.09 0.00 61 1032.9
20260904132236 63 225 0.0 0.0 0.00 0.09 0.00 61 1032.8
20260904131736 63 245 0.0 0.0 0.00 0.09 0.00 61 1032.7
20260904131236 63 245 0.0 0.0 0.00 0.09 0.00 62 1032.7
20260904130733 63 245 0.0 0.0 0.00 0.09 0.00 62 1032.7
20260904130236 63 245 0.0 0.0 0.00 0.09 0.00 61 1032.5
20260904125736 63 245 0.0 0.0 0.00 0.09 0.00 61 1032.4
20260904125236 63 245 0.0 0.0 0.00 0.09 0.00 62 1032.3
20260904124733 63 245 0.0 0.0 0.00 0.09 0.00 63 1032.2
20260904124233 63 245 0.0 0.0 0.00 0.09 0.00 61 1032.2
20260904123733 63 245 0.0 0.0 0.00 0.09 0.00 62 1032.2
20260904123236 62 245 0.0 0.0 0.00 0.09 0.00 63 1032.2
20260904122733 62 245 0.0 0.0 0.00 0.09 0.00 63 1032.2
20260904122233 62 245 0.0 0.0 0.00 0.09 0.00 62 1032.2
20260904121736 62 245 0.0 0.0 0.00 0.09 0.00 63 1032.1
20260904121233 62 245 0.0 0.0 0.00 0.09 0.00 62 1032.1
20260904120733 62 245 0.0 0.0 0.00 0.09 0.00 63 1032.2
20260904120233 63 245 0.0 0.0 0.00 0.09 0.00 63 1032.2
20260904115733 62 245 0.0 0.0 0.00 0.09 0.00 63 1032.2
20260904115233 62 244 0.0 0.0 0.00 0.09 0.00 63 1032.3
20260904114736 62 245 0.0 0.0 0.00 0.09 0.00 64 1032.3
20260904114233 62 244 0.0 0.0 0.00 0.09 0.00 62 1032.3
20260904113733 63 245 0.0 0.0 0.00 0.09 0.00 64 1032.3
20260904113233 63 245 0.0 0.0 0.00 0.09 0.00 62 1032.3
20260904112736 63 245 0.0 0.0 0.00 0.09 0.00 62 1032.4
20260904112236 62 245 0.0 0.0 0.00 0.09 0.00 62 1032.4
20260904111736 62 245 0.0 0.0 0.00 0.09 0.00 63 1032.4
20260904111233 62 245 0.0 0.0 0.00 0.09 0.00 63 1032.6
20260904110736 62 245 0.0 0.0 0.00 0.09 0.00 63 1032.6
20260904110236 63 244 0.0 0.0 0.00 0.09 0.00 62 1032.6
20260904105736 63 245 0.0 0.0 0.00 0.09 0.00 61 1032.6
20260904105236 63 245 0.0 0.0 0.00 0.09 0.00 61 1032.6
20260904104736 64 245 0.0 0.0 0.00 0.09 0.00 60 1032.6
20260904104236 64 244 0.0 0.0 0.00 0.09 0.00 59 1032.7
20260904103733 64 245 0.0 0.0 0.00 0.09 0.00 59 1032.6
20260904103233 64 245 0.0 0.0 0.00 0.09 0.00 58 1032.6
20260904102733 64 244 0.0 0.0 0.00 0.09 0.00 62 1032.7
20260904102233 64 245 0.0 0.0 0.00 0.09 0.00 58 1032.7
20260904101736 65 245 0.0 0.0 0.00 0.09 0.00 57 1032.8
20260904101233 65 245 0.0 0.0 0.00 0.09 0.00 57 1032.8
20260904100733 65 244 0.0 0.0 0.00 0.09 0.00 60 1032.9
20260904100233 65 245 0.0 0.0 0.00 0.09 0.00 58 1032.9
20260904095733 66 244 0.0 0.0 0.00 0.09 0.00 54 1033.0
20260904095233 66 245 0.0 0.0 0.00 0.09 0.00 54 1033.0
20260904094733 66 245 0.0 0.0 0.00 0.09 0.00 54 1033.1
20260904094233 66 245 0.0 0.0 0.00 0.09 0.00 54 1033.1
20260904093733 66 245 0.0 0.0 0.00 0.09 0.00 53 1033.2
20260904093233 66 245 0.0 0.0 0.00 0.09 0.00 53 1033.2
20260904092733 66 245 0.0 0.0 0.00 0.09 0.00 53 1033.3
20260904092236 66 245 0.0 0.0 0.00 0.09 0.00 54 1033.3
20260904091736 65 245 0.0 0.0 0.00 0.09 0.00 54 1033.4
20260904091236 65 245 0.0 0.0 0.00 0.09 0.00 55 1033.4
20260904090733 65 245 0.0 0.0 0.00 0.09 0.00 55 1033.4
20260904090236 65 245 0.0 0.0 0.00 0.09 0.00 56 1033.4
20260904085736 65 245 0.0 0.0 0.00 0.09 0.00 55 1033.5
20260904085233 65 245 0.0 0.0 0.00 0.09 0.00 55 1033.6
20260904084733 65 245 0.0 0.0 0.00 0.09 0.00 55 1033.6
20260904084233 65 245 0.0 0.0 0.00 0.09 0.00 55 1033.7
20260904083736 65 245 0.0 0.0 0.00 0.09 0.00 54 1033.8
20260904083233 65 245 0.0 0.0 0.00 0.09 0.00 54 1033.8
20260904082736 64 245 0.0 0.0 0.00 0.09 0.00 56 1033.9
20260904082233 64 245 0.0 0.0 0.00 0.09 0.00 57 1034.1
20260904081736 64 244 0.0 0.0 0.00 0.09 0.00 56 1034.1
20260904081233 65 245 0.0 0.0 0.00 0.09 0.00 55 1034.2
20260904080736 65 245 0.0 0.0 0.00 0.09 0.00 55 1034.2
20260904080236 64 245 0.0 0.0 0.00 0.09 0.00 55 1034.3
20260904075733 64 245 0.0 0.0 0.00 0.09 0.00 56 1034.4
20260904075236 64 245 0.0 0.0 0.00 0.09 0.00 56 1034.3
20260904074733 64 245 0.0 0.0 0.00 0.09 0.00 56 1034.4
20260904074236 64 245 0.0 0.0 0.00 0.09 0.00 56 1034.6
20260904073733 64 244 0.0 0.0 0.00 0.09 0.00 56 1034.7
20260904073236 63 245 0.0 0.0 0.00 0.09 0.00 58 1034.8
20260904072733 63 245 0.0 0.0 0.00 0.09 0.00 57 1034.9
20260904072236 64 245 0.0 0.0 0.00 0.09 0.00 56 1034.9
20260904071733 64 245 0.0 0.0 0.00 0.09 0.00 55 1034.9
20260904071233 64 245 0.0 0.0 0.00 0.09 0.00 55 1034.9
20260904070736 64 245 0.0 0.0 0.00 0.09 0.00 55 1035.1
20260904070236 64 245 0.0 0.0 0.00 0.09 0.00 55 1035.1
20260904065733 64 245 0.0 0.0 0.00 0.09 0.00 55 1035.1
20260904065233 64 245 0.0 0.0 0.00 0.09 0.00 56 1035.1
20260904064733 65 245 0.0 0.0 0.00 0.09 0.00 55 1035.2
20260904064236 65 245 0.0 0.0 0.00 0.09 0.00 55 1035.3
20260904063736 65 245 0.0 0.0 0.00 0.09 0.00 54 1035.3
20260904063236 65 244 0.0 0.0 0.00 0.09 0.00 55 1035.5
20260904062736 65 245 0.0 0.0 0.00 0.09 0.00 55 1035.6
20260904062233 65 244 0.0 0.0 0.00 0.09 0.00 56 1035.6
20260904061733 65 245 0.0 0.0 0.00 0.09 0.00 56 1035.6
20260904061233 65 245 0.0 0.0 0.00 0.09 0.00 56 1035.7
20260904060733 65 244 0.0 0.0 0.00 0.09 0.00 56 1035.7
20260904060233 65 244 0.0 0.0 0.00 0.09 0.00 56 1035.6
20260904055736 65 244 0.0 0.0 0.00 0.09 0.00 57 1035.8
20260904055236 64 244 0.0 0.0 0.00 0.09 0.00 59 1036.0
20260904054736 64 245 0.0 0.0 0.00 0.09 0.00 58 1036.0
20260904054233 64 245 0.0 0.0 0.00 0.09 0.00 60 1036.1
20260904053736 64 300 0.0 0.0 0.00 0.09 0.00 59 1036.0
20260904053233 63 300 0.0 0.0 0.00 0.09 0.00 60 1036.2
20260904052733 63 300 0.0 0.0 0.00 0.09 0.00 62 1036.2
20260904052233 63 300 0.0 0.0 0.00 0.09 0.00 61 1036.2
20260904051733 63 300 0.0 0.0 0.00 0.09 0.00 60 1036.3
20260904051236 63 300 0.0 0.0 0.00 0.09 0.00 59 1036.3
20260904050736 64 300 0.0 0.0 0.00 0.09 0.00 60 1036.4
20260904050233 64 300 0.0 0.0 0.00 0.09 0.00 59 1036.4
20260904045736 64 300 0.0 0.0 0.00 0.09 0.00 59 1036.4
20260904045233 64 300 0.0 0.0 0.00 0.09 0.00 60 1036.5
20260904044733 64 300 0.0 0.0 0.00 0.09 0.00 60 1036.5
20260904044236 64 300 0.0 0.0 0.00 0.09 0.00 62 1036.6
20260904043736 64 300 0.0 0.0 0.00 0.09 0.00 62 1036.6
20260904043236 64 3 0.0 0.0 0.00 0.09 0.00 62 1036.6
20260904042736 64 3 0.0 0.0 0.00 0.09 0.00 63 1036.7
20260904042236 65 4 0.0 0.0 0.00 0.09 0.00 60 1036.7
20260904041733 65 3 0.0 0.0 0.00 0.09 0.00 60 1036.8
20260904041233 65 4 0.0 0.0 0.00 0.09 0.00 59 1036.8
20260904040736 65 44 0.0 0.0 0.00 0.09 0.00 60 1036.8
20260904040233 66 63 0.0 0.0 0.00 0.09 0.00 59 1036.9
20260904035736 66 63 0.0 0.0 0.00 0.09 0.00 58 1037.0
20260904035236 66 83 0.0 0.0 0.00 0.09 0.00 58 1037.0
20260904034733 66 79 0.0 0.0 0.00 0.09 0.00 57 1036.9
20260904034236 67 14 0.0 7.0 0.00 0.09 0.00 56 1036.9
20260904033733 67 90 0.0 4.0 0.00 0.09 0.00 54 1037.0
20260904033233 67 232 0.0 0.0 0.00 0.09 0.00 54 1036.7
20260904032736 67 232 0.0 0.0 0.00 0.09 0.00 53 1036.7
20260904032233 67 232 0.0 0.0 0.00 0.09 0.00 54 1036.7
20260904031736 67 278 0.0 0.0 0.00 0.09 0.00 53 1036.7
20260904031236 67 278 0.0 0.0 0.00 0.09 0.00 55 1036.7
20260904030741 67 278 0.0 0.0 0.00 0.09 0.00 54 1036.7
20260904030236 67 206 0.0 0.0 0.00 0.09 0.00 54 1036.6
20260904025736 67 205 0.0 0.0 0.00 0.09 0.00 55 1036.5
20260904025233 66 325 0.0 0.0 0.00 0.09 0.00 56 1036.5
20260904024736 66 238 0.0 0.0 0.00 0.09 0.00 58 1036.4
20260904024233 65 238 0.0 0.0 0.00 0.09 0.00 60 1036.4
20260904023733 65 238 0.0 0.0 0.00 0.09 0.00 61 1036.3
20260904023233 65 259 0.0 0.0 0.00 0.09 0.00 62 1036.3
20260904022733 65 266 0.0 9.0 0.00 0.09 0.00 64 1036.1
20260904022236 65 256 9.0 11.0 0.00 0.09 0.00 64 1036.1
20260904021733 64 251 0.0 15.0 0.00 0.09 0.00 65 1036.0
20260904021233 64 255 7.0 12.0 0.00 0.09 0.00 69 1035.9
20260904020736 64 253 0.0 8.0 0.00 0.09 0.00 72 1036.0
20260904020233 63 224 7.0 8.0 0.00 0.09 0.00 76 1036.1
20260904015733 63 234 8.0 12.0 0.00 0.09 0.00 79 1036.1
20260904015233 61 215 0.0 14.0 0.00 0.09 0.00 91 1036.0
20260904014733 61 248 6.0 1.0 0.00 0.09 0.00 92 1036.1
20260904014236 60 259 0.0 0.0 0.00 0.09 0.00 92 1036.0
20260904013733 60 238 0.0 0.0 0.02 0.09 0.00 93 1036.0
20260904013233 60 269 0.0 0.0 0.04 0.09 0.00 92 1036.0
20260904012736 60 319 0.0 0.0 0.09 0.09 0.00 93 1036.0
20260904012236 60 322 0.0 9.0 0.09 0.09 0.00 92 1035.9
20260904011733 60 271 0.0 0.0 0.09 0.09 0.00 92 1035.9
20260904011233 60 252 0.0 0.0 0.09 0.09 0.00 94 1035.7
20260904010733 60 250 0.0 0.0 0.09 0.09 0.00 94 1035.6
20260904010236 60 250 0.0 0.0 0.09 0.09 0.00 93 1035.6
20260904005733 59 250 0.0 0.0 0.09 0.09 0.00 93 1035.7
20260904005236 59 249 0.0 2.0 0.09 0.09 0.00 92 1035.8
20260904004733 59 311 2.0 3.0 0.09 0.09 0.00 90 1035.7
20260904004233 61 356 0.0 15.0 0.09 0.09 0.00 86 1036.0
20260904003733 64 252 13.0 16.0 0.08 0.08 0.00 79 1036.0
20260904003236 73 259 4.0 10.0 0.06 0.06 0.00 41 1035.9
20260904002736 77 200 0.0 0.0 0.00 0.00 0.00 35 1035.3
20260904002236 77 101 0.0 0.0 0.00 0.00 0.00 34 1035.1
20260904001736 77 72 0.0 0.0 0.00 0.00 0.00 34 1035.0
20260904001236 77 145 0.0 0.0 0.00 0.00 0.00 34 1035.0
20260904000733 78 148 0.0 0.0 0.00 0.00 0.00 34 1035.0
20260904000233 78 142 0.0 0.0 0.00 0.00 0.00 33 1035.0
20260903235736 78 166 0.0 0.0 0.00 0.00 0.00 33 1034.9
20260903235233 78 204 0.0 0.0 0.00 0.00 0.00 34 1034.9
20260903234733 78 155 0.0 0.0 0.00 0.00 0.00 33 1034.8
20260903234233 78 177 0.0 0.0 0.00 0.00 0.00 33 1034.8
20260903233736 79 153 0.0 0.0 0.00 0.00 0.00 33 1034.7
20260903233233 79 155 0.0 10.0 0.00 0.00 0.00 32 1034.7
20260903232736 79 182 0.0 0.0 0.00 0.00 0.00 32 1034.7
20260903232236 80 186 0.0 8.0 0.00 0.00 0.00 31 1034.6
20260903231733 81 174 8.0 9.0 0.00 0.00 0.00 30 1034.6
20260903231236 81 138 0.0 9.0 0.00 0.00 0.00 30 1034.5
20260903230733 81 184 9.0 10.0 0.00 0.00 0.00 30 1034.5
20260903230236 80 194 0.0 9.0 0.00 0.00 0.00 31 1034.5
20260903225733 80 183 5.0 7.0 0.00 0.00 0.00 31 1034.5
20260903225236 80 238 0.0 0.0 0.00 0.00 0.00 31 1034.5
20260903224736 81 273 0.0 0.0 0.00 0.00 0.00 31 1034.5
20260903224236 80 204 0.0 0.0 0.00 0.00 0.00 30 1034.5
20260903223733 80 158 0.0 0.0 0.00 0.00 0.00 30 1034.5
20260903223233 80 176 0.0 0.0 0.00 0.00 0.00 30 1034.4
20260903222733 81 179 0.0 0.0 0.00 0.00 0.00 30 1034.4
20260903222233 82 259 0.0 3.0 0.00 0.00 0.00 28 1034.2
20260903221733 82 236 0.0 7.0 0.00 0.00 0.00 29 1034.2
20260903221233 82 266 0.0 6.0 0.00 0.00 0.00 29 1034.2
20260903220736 82 269 0.0 3.0 0.00 0.00 0.00 30 1034.2
20260903220236 81 253 0.0 0.0 0.00 0.00 0.00 30 1034.2
20260903215736 82 134 0.0 6.0 0.00 0.00 0.00 29 1034.2
20260903215236 82 197 0.0 1.0 0.00 0.00 0.00 29 1034.2
20260903214736 81 256 0.0 0.0 0.00 0.00 0.00 30 1034.2
20260903214233 80 188 0.0 0.0 0.00 0.00 0.00 31 1034.3
20260903213733 80 160 0.0 0.0 0.00 0.00 0.00 31 1034.2
20260903213236 80 169 0.0 0.0 0.00 0.00 0.00 30 1034.3
20260903212736 80 245 0.0 0.0 0.00 0.00 0.00 31 1034.3
20260903212233 80 245 0.0 0.0 0.00 0.00 0.00 31 1034.2
20260903211736 79 79 0.0 0.0 0.00 0.00 0.00 32 1034.3
20260903211233 79 45 0.0 0.0 0.00 0.00 0.00 31 1034.4
20260903210736 79 247 0.0 0.0 0.00 0.00 0.00 32 1034.4
20260903210236 79 260 0.0 1.0 0.00 0.00 0.00 32 1034.4
20260903205736 79 287 0.0 0.0 0.00 0.00 0.00 31 1034.3
20260903205236 79 333 0.0 0.0 0.00 0.00 0.00 31 1034.3
20260903204733 79 226 0.0 0.0 0.00 0.00 0.00 31 1034.4
20260903204236 79 248 0.0 10.0 0.00 0.00 0.00 31 1034.3
20260903203736 80 114 0.0 0.0 0.00 0.00 0.00 31 1034.3
20260903203233 80 128 0.0 0.0 0.00 0.00 0.00 30 1034.2
20260903202736 81 69 0.0 0.0 0.00 0.00 0.00 29 1034.3
20260903202233 81 198 0.0 0.0 0.00 0.00 0.00 29 1034.3
20260903201733 81 204 0.0 0.0 0.00 0.00 0.00 29 1034.4
20260903201233 82 170 0.0 0.0 0.00 0.00 0.00 29 1034.3
20260903200736 82 203 0.0 0.0 0.00 0.00 0.00 28 1034.3
20260903200236 82 185 0.0 5.0 0.00 0.00 0.00 28 1034.4
20260903195733 81 145 0.0 3.0 0.00 0.00 0.00 29 1034.3
20260903195233 81 248 0.0 0.0 0.00 0.00 0.00 30 1034.4
20260903194733 81 160 0.0 8.0 0.00 0.00 0.00 30 1034.5
20260903194233 80 215 0.0 5.0 0.00 0.00 0.00 30 1034.5
20260903193736 79 163 0.0 0.0 0.00 0.00 0.00 32 1034.5
20260903193236 77 158 0.0 7.0 0.00 0.00 0.00 33 1034.5
20260903192733 77 155 0.0 11.0 0.00 0.00 0.00 33 1034.6
20260903192236 78 252 0.0 5.0 0.00 0.00 0.00 32 1034.6
20260903191736 78 197 0.0 6.0 0.00 0.00 0.00 32 1034.6
20260903191236 78 192 7.0 8.0 0.00 0.00 0.00 33 1034.6
20260903190733 78 172 0.0 0.0 0.00 0.00 0.00 32 1034.7
20260903190233 79 201 0.0 0.0 0.00 0.00 0.00 32 1034.7
20260903185736 79 145 0.0 0.0 0.00 0.00 0.00 32 1034.7
20260903185236 78 222 0.0 8.0 0.00 0.00 0.00 35 1034.7
20260903184733 78 212 0.0 9.0 0.00 0.00 0.00 33 1034.9
20260903184233 79 142 3.0 6.0 0.00 0.00 0.00 34 1034.8
20260903183733 80 116 0.0 3.0 0.00 0.00 0.00 34 1034.9
20260903183233 78 162 0.0 0.0 0.00 0.00 0.00 36 1034.9
20260903182736 77 155 0.0 0.0 0.00 0.00 0.00 37 1034.9
20260903182236 75 128 0.0 2.0 0.00 0.00 0.00 38 1035.0
20260903181736 75 143 0.0 8.0 0.00 0.00 0.00 38 1035.0
20260903181233 75 77 0.0 10.0 0.00 0.00 0.00 37 1035.0
20260903180732 76 89 9.0 11.0 0.00 0.00 0.00 37 1035.0
20260903180235 76 176 0.0 13.0 0.00 0.00 0.00 37 1035.0
20260903175736 78 125 3.0 9.0 0.00 0.00 0.00 36 1034.9
20260903175236 78 114 0.0 5.0 0.00 0.00 0.00 35 1035.0
20260903174735 77 79 0.0 4.0 0.00 0.00 0.00 36 1035.0
20260903174236 77 179 1.0 6.0 0.00 0.00 0.00 37 1035.1
20260903173732 77 68 0.0 0.0 0.00 0.00 0.00 36 1035.0
20260903173233 77 200 0.0 0.0 0.00 0.00 0.00 37 1035.0
20260903172736 77 115 0.0 0.0 0.00 0.00 0.00 37 1035.0
20260903172233 76 198 0.0 0.0 0.00 0.00 0.00 37 1035.0
20260903171736 76 75 0.0 0.0 0.00 0.00 0.00 36 1035.0
20260903171232 77 67 0.0 0.0 0.00 0.00 0.00 35 1035.0
20260903170732 77 186 0.0 0.0 0.00 0.00 0.00 36 1035.0
20260903170233 75 218 0.0 0.0 0.00 0.00 0.00 39 1035.0
20260903165732 73 88 0.0 9.0 0.00 0.00 0.00 40 1034.9
20260903165232 74 194 0.0 0.0 0.00 0.00 0.00 39 1034.9
20260903164733 73 204 0.0 10.0 0.00 0.00 0.00 40 1034.9
20260903164235 73 61 0.0 7.0 0.00 0.00 0.00 40 1034.9
20260903163733 73 49 7.0 10.0 0.00 0.00 0.00 40 1034.9
20260903163232 74 56 2.0 6.0 0.00 0.00 0.00 39 1034.9
20260903162735 75 87 0.0 5.0 0.00 0.00 0.00 38 1034.8
20260903162235 74 103 1.0 5.0 0.00 0.00 0.00 39 1034.8
20260903161732 73 87 0.0 11.0 0.00 0.00 0.00 41 1034.7
20260903161236 74 74 4.0 9.0 0.00 0.00 0.00 39 1034.5
20260903160736 74 58 0.0 5.0 0.00 0.00 0.00 39 1034.5
20260903160232 73 149 0.0 8.0 0.00 0.00 0.00 40 1034.5
20260903155736 74 105 0.0 0.0 0.00 0.00 0.00 39 1034.5
20260903155232 74 75 0.0 0.0 0.00 0.00 0.00 39 1034.6
20260903154733 75 74 0.0 0.0 0.00 0.00 0.00 38 1034.6
20260903154235 75 128 0.0 0.0 0.00 0.00 0.00 39 1034.6
20260903153736 74 153 0.0 0.0 0.00 0.00 0.00 40 1034.6
20260903153232 73 153 0.0 0.0 0.00 0.00 0.00 40 1034.7
20260903152736 72 62 0.0 0.0 0.00 0.00 0.00 41 1034.7
20260903152232 72 322 0.0 0.0 0.00 0.00 0.00 42 1034.7